User: anonymous   Login
Location: Oshawa
(43.9000°N, 78.8670°W)
Time: 15:52:36
(UTC-05:00)
Language:

Altair - Orbit

View from above orbital plane
View from above orbital plane
View from above satellite
View from above satellite

Ground track
Ground track

The orbit data is extracted from the following two-line orbital elements,

1 00050U 60009B   15059.97821190 -.00000036  00000-0  45882-3 0  9997
2 00050 047.2340 008.2447 0114442 317.5094 041.6882 12.20090801434369
Epoch (UTC): 28 February 2015 23:28:37
Eccentricity: 0.0114442
inclination: 47.2340°
perigee height: 1501 km
apogee height: 1683 km
right ascension of ascending node: 8.2447°
argument of perigee: 317.5094°
revolutions per day: 12.20090801
mean anomaly at epoch: 41.6882°
orbit number at epoch: 43436

The dashed part of the orbit path shows where the satellite is in the earth's shadow,  

DLR